This is the latest recevied weather packets stored in our database for station/object KO6MEX-13. If no packets are shown the sender has not sent any weather packets the latest 10 day(s).
| Time | Temp. | Humidity | Pressure | Rain* | Wind** | Luminosity | Snow |
|---|---|---|---|---|---|---|---|
| 1777686469 | 15° C | 81% | 1016.9 hPa | 0 mm | - | 51 W/m² | - |
| 1777686165 | 15° C | 80% | 1016.9 hPa | 0 mm | - | 52 W/m² | - |
| 1777685862 | 15° C | 79% | 1016.7 hPa | 0 mm | - | 55 W/m² | - |
| 1777685557 | 15° C | 79% | 1016.7 hPa | 0 mm | - | 56 W/m² | - |
| 1777685254 | 15.56° C | 77% | 1016.7 hPa | 0 mm | - | 117 W/m² | - |
| 1777684952 | 15.56° C | 78% | 1016.7 hPa | 0 mm | - | 151 W/m² | - |
| 1777684649 | 15.56° C | 77% | 1016.7 hPa | 0 mm | - | 162 W/m² | - |
| 1777684345 | 15.56° C | 78% | 1016.7 hPa | 0 mm | - | 176 W/m² | - |
| 1777684043 | 15.56° C | 78% | 1016.7 hPa | 0 mm | - | 193 W/m² | - |
| 1777683739 | 15.56° C | 77% | 1016.9 hPa | 0 mm | - | 213 W/m² | - |
| 1777683436 | 15.56° C | 77% | 1017 hPa | 0 mm | - | 230 W/m² | - |
| 1777683134 | 15.56° C | 76% | 1017 hPa | 0 mm | - | 255 W/m² | - |
| 1777682830 | 15.56° C | 78% | 1016.9 hPa | 0 mm | - | 242 W/m² | - |
| 1777682526 | 15.56° C | 76% | 1017 hPa | 0 mm | - | 190 W/m² | - |
| 1777682224 | 15.56° C | 76% | 1016.9 hPa | 0 mm | - | 306 W/m² | - |
| 1777681921 | 15.56° C | 76% | 1017 hPa | 0 mm | - | 308 W/m² | - |
| 1777681617 | 15.56° C | 77% | 1017 hPa | 0 mm | - | 333 W/m² | - |
| 1777681315 | 15° C | 77% | 1017.1 hPa | 0 mm | - | 342 W/m² | - |
| 1777681012 | 15.56° C | 77% | 1017.1 hPa | 0 mm | - | 297 W/m² | - |
| 1777680710 | 15.56° C | 75% | 1017 hPa | 0 mm | - | 353 W/m² | - |
| 1777680407 | 15.56° C | 76% | 1017.1 hPa | 0 mm | - | 205 W/m² | - |
| 1777680105 | 15.56° C | 75% | 1017.3 hPa | 0 mm | - | 442 W/m² | - |
| 1777679800 | 16.11° C | 75% | 1017.2 hPa | 0 mm | - | 473 W/m² | - |
| 1777679497 | 15.56° C | 75% | 1017.1 hPa | 0 mm | - | 500 W/m² | - |
| 1777679192 | 15.56° C | 75% | 1017.3 hPa | 0 mm | - | 475 W/m² | - |
* Rain latest hour (hover to see other rain measurements)
** Current wind speed in m/s (hover to see current wind gust speed)